Location: Wald
(31.7579°N, 86.6655°W)
Time: 11:54:20
(UTC+00:00)

COSMOS 2441 - Pass Details

Date: 14 July 2020
Orbit: 707 x 732 km, 98.0° (Epoch: 09 August)

Event Time Altitude Azimuth Distance (km) Brightness Sun altitude
Rises 09:30:10 0° 8° (N) 3,112 8.4 -15.5°
Reaches altitude 10° 09:32:27 10° 6° (N) 2,187 7.5 -15.1°
Maximum altitude 09:37:12 67° 285° (WNW) 765 4.3 -14.3°
Enters shadow 09:40:56 16° 204° (SSW) 1,781 5.9 -13.7°
